Time,TemperatureF,DewpointF,PressureIn,WindDirection,WindDirectionDegrees,WindSpeedMPH,WindSpeedGustMPH,Humidity,HourlyPrecipIn,Conditions,Clouds,dailyrainin,SoftwareType,DateUTC
2013-06-15 00:00:00,56.1,53.5,30.07,South,187,0.0,2.0,91,0.00,,SKC,0.00,VWS V14.01,2013-06-15 04:00:00,
2013-06-15 00:01:00,56.1,53.5,30.07,South,187,0.0,0.0,91,0.00,,SKC,0.00,VWS V14.01,2013-06-15 04:01:00,
2013-06-15 00:06:00,55.9,53.6,30.07,South,187,1.0,1.0,92,0.00,,SKC,0.00,VWS V14.01,2013-06-15 04:06:00,
2013-06-15 00:11:00,55.7,53.7,30.08,South,187,0.0,1.0,93,0.00,,SKC,0.00,VWS V14.01,2013-06-15 04:11:00,
2013-06-15 00:16:00,55.5,53.5,30.07,South,187,0.0,1.0,93,0.00,,SKC,0.00,VWS V14.01,2013-06-15 04:16:00,
2013-06-15 00:21:00,55.5,53.5,30.08,South,187,0.0,1.0,93,0.00,,SKC,0.00,VWS V14.01,2013-06-15 04:21:00,
2013-06-15 00:26:00,55.2,53.2,30.07,South,187,0.0,1.0,93,0.00,,SKC,0.00,VWS V14.01,2013-06-15 04:26:00,
2013-06-15 00:30:00,55.1,53.1,30.08,South,187,0.0,1.0,93,0.00,,SKC,0.00,VWS V14.01,2013-06-15 04:30:00,
2013-06-15 00:31:00,55.1,53.1,30.08,South,187,0.0,0.0,93,0.00,,SKC,0.00,VWS V14.01,2013-06-15 04:31:00,
2013-06-15 00:36:00,54.8,52.8,30.08,South,187,0.0,0.0,93,0.00,,SKC,0.00,VWS V14.01,2013-06-15 04:36:00,
2013-06-15 00:41:00,54.7,53.0,30.08,South,187,0.0,0.0,94,0.00,,SKC,0.00,VWS V14.01,2013-06-15 04:41:00,
2013-06-15 00:46:00,54.6,52.9,30.08,South,187,0.0,0.0,94,0.00,,SKC,0.00,VWS V14.01,2013-06-15 04:46:00,
2013-06-15 00:51:00,54.4,52.7,30.08,South,187,0.0,0.0,94,0.00,,SKC,0.00,VWS V14.01,2013-06-15 04:51:00,
2013-06-15 00:56:00,54.3,52.6,30.08,South,187,0.0,1.0,94,0.00,,SKC,0.00,VWS V14.01,2013-06-15 04:56:00,
2013-06-15 01:00:00,54.2,52.8,30.08,South,187,0.0,1.0,95,0.00,,SKC,0.00,VWS V14.01,2013-06-15 05:00:00,
2013-06-15 01:01:00,54.2,52.8,30.09,South,187,0.0,0.0,95,0.00,,SKC,0.00,VWS V14.01,2013-06-15 05:01:00,
2013-06-15 01:06:00,54.2,52.8,30.09,South,187,0.0,0.0,95,0.00,,SKC,0.00,VWS V14.01,2013-06-15 05:06:00,
2013-06-15 01:11:00,54.0,52.6,30.09,South,187,0.0,1.0,95,0.00,,SKC,0.00,VWS V14.01,2013-06-15 05:11:00,
2013-06-15 01:16:00,53.8,52.4,30.09,South,187,0.0,1.0,95,0.00,,SKC,0.00,VWS V14.01,2013-06-15 05:16:00,
2013-06-15 01:21:00,53.5,52.1,30.09,South,188,0.0,1.0,95,0.00,,SKC,0.00,VWS V14.01,2013-06-15 05:21:00,
2013-06-15 01:26:00,53.6,52.2,30.09,South,187,0.0,1.0,95,0.00,,SKC,0.00,VWS V14.01,2013-06-15 05:26:00,
2013-06-15 01:30:00,53.4,52.0,30.09,South,187,0.0,1.0,95,0.00,,SKC,0.00,VWS V14.01,2013-06-15 05:30:00,
2013-06-15 01:31:00,53.4,52.0,30.09,South,187,0.0,0.0,95,0.00,,SKC,0.00,VWS V14.01,2013-06-15 05:31:00,
2013-06-15 01:36:00,53.2,51.8,30.09,South,187,0.0,0.0,95,0.00,,SKC,0.00,VWS V14.01,2013-06-15 05:36:00,
2013-06-15 01:41:00,53.0,51.6,30.09,South,187,0.0,0.0,95,0.00,,SKC,0.00,VWS V14.01,2013-06-15 05:41:00,
2013-06-15 01:46:00,52.8,51.4,30.09,South,187,0.0,0.0,95,0.00,,SKC,0.00,VWS V14.01,2013-06-15 05:46:00,
2013-06-15 01:51:00,52.8,51.7,30.09,South,187,0.0,0.0,96,0.00,,SKC,0.00,VWS V14.01,2013-06-15 05:51:00,
2013-06-15 01:56:00,52.6,51.5,30.09,South,187,0.0,0.0,96,0.00,,SKC,0.00,VWS V14.01,2013-06-15 05:56:00,
2013-06-15 02:00:00,52.4,51.3,30.09,South,187,0.0,0.0,96,0.00,,SKC,0.00,VWS V14.01,2013-06-15 06:00:00,
2013-06-15 02:01:00,52.3,51.2,30.09,South,187,0.0,0.0,96,0.00,,SKC,0.00,VWS V14.01,2013-06-15 06:01:00,
2013-06-15 02:06:00,52.1,51.0,30.09,South,187,0.0,0.0,96,0.00,,SKC,0.00,VWS V14.01,2013-06-15 06:06:00,
2013-06-15 02:11:00,52.2,51.1,30.09,South,187,0.0,0.0,96,0.00,,SKC,0.00,VWS V14.01,2013-06-15 06:11:00,
2013-06-15 02:16:00,52.2,51.1,30.09,South,187,0.0,0.0,96,0.00,,SKC,0.00,VWS V14.01,2013-06-15 06:16:00,
2013-06-15 02:21:00,52.1,51.0,30.09,South,187,0.0,0.0,96,0.00,,SKC,0.00,VWS V14.01,2013-06-15 06:21:00,
2013-06-15 02:26:00,52.0,51.2,30.09,South,187,0.0,0.0,97,0.00,,SKC,0.00,VWS V14.01,2013-06-15 06:26:00,
2013-06-15 02:30:00,51.8,50.7,30.09,South,187,0.0,0.0,96,0.00,,SKC,0.00,VWS V14.01,2013-06-15 06:30:00,
2013-06-15 02:31:00,51.7,50.6,30.09,South,188,0.0,0.0,96,0.00,,SKC,0.00,VWS V14.01,2013-06-15 06:31:00,
2013-06-15 02:36:00,51.9,51.1,30.09,South,187,1.0,1.0,97,0.00,,SKC,0.00,VWS V14.01,2013-06-15 06:36:00,
2013-06-15 02:41:00,51.9,51.1,30.09,South,187,0.0,1.0,97,0.00,,SKC,0.00,VWS V14.01,2013-06-15 06:41:00,
2013-06-15 02:46:00,51.9,51.1,30.09,South,187,0.0,1.0,97,0.00,,SKC,0.00,VWS V14.01,2013-06-15 06:46:00,
2013-06-15 02:51:00,51.7,50.9,30.09,South,187,0.0,1.0,97,0.00,,SKC,0.00,VWS V14.01,2013-06-15 06:51:00,
2013-06-15 02:56:00,51.4,50.6,30.09,South,187,0.0,1.0,97,0.00,,SKC,0.00,VWS V14.01,2013-06-15 06:56:00,
2013-06-15 03:00:00,51.4,50.6,30.09,South,187,0.0,1.0,97,0.00,,SKC,0.00,VWS V14.01,2013-06-15 07:00:00,
2013-06-15 03:01:00,51.4,50.6,30.09,South,187,0.0,0.0,97,0.00,,SKC,0.00,VWS V14.01,2013-06-15 07:01:00,
2013-06-15 03:06:00,51.5,50.7,30.09,South,187,0.0,0.0,97,0.00,,SKC,0.00,VWS V14.01,2013-06-15 07:06:00,
2013-06-15 03:11:00,51.4,50.6,30.09,South,187,0.0,0.0,97,0.00,,SKC,0.00,VWS V14.01,2013-06-15 07:11:00,
2013-06-15 03:16:00,51.3,50.5,30.09,South,187,0.0,0.0,97,0.00,,SKC,0.00,VWS V14.01,2013-06-15 07:16:00,
2013-06-15 03:21:00,51.2,50.4,30.08,South,187,0.0,0.0,97,0.00,,SKC,0.00,VWS V14.01,2013-06-15 07:21:00,
2013-06-15 03:26:00,51.0,50.2,30.08,South,188,0.0,0.0,97,0.00,,SKC,0.00,VWS V14.01,2013-06-15 07:26:00,
2013-06-15 03:30:00,50.8,50.0,30.08,South,187,0.0,0.0,97,0.00,,SKC,0.00,VWS V14.01,2013-06-15 07:30:00,
2013-06-15 03:31:00,50.7,49.9,30.08,South,187,0.0,0.0,97,0.00,,SKC,0.00,VWS V14.01,2013-06-15 07:31:00,
2013-06-15 03:36:00,50.8,50.0,30.08,South,188,0.0,0.0,97,0.00,,SKC,0.00,VWS V14.01,2013-06-15 07:36:00,
2013-06-15 03:41:00,50.7,49.9,30.08,South,187,0.0,0.0,97,0.00,,SKC,0.00,VWS V14.01,2013-06-15 07:41:00,
2013-06-15 03:46:00,50.7,49.9,30.08,South,187,0.0,0.0,97,0.00,,SKC,0.00,VWS V14.01,2013-06-15 07:46:00,
2013-06-15 03:51:00,50.6,49.8,30.08,South,187,0.0,0.0,97,0.00,,SKC,0.00,VWS V14.01,2013-06-15 07:51:00,
2013-06-15 03:56:00,50.6,50.1,30.08,South,187,0.0,0.0,98,0.00,,SKC,0.00,VWS V14.01,2013-06-15 07:56:00,
2013-06-15 04:00:00,50.5,49.7,30.08,South,187,0.0,0.0,97,0.00,,SKC,0.00,VWS V14.01,2013-06-15 08:00:00,
2013-06-15 04:05:00,50.4,49.6,30.09,South,187,0.0,0.0,97,0.00,,SKC,0.00,VWS V14.01,2013-06-15 08:05:00,
2013-06-15 04:10:00,50.4,49.9,30.08,South,187,0.0,0.0,98,0.00,,SKC,0.00,VWS V14.01,2013-06-15 08:10:00,
2013-06-15 04:15:00,50.5,50.0,30.08,South,187,0.0,0.0,98,0.00,,SKC,0.00,VWS V14.01,2013-06-15 08:15:00,
2013-06-15 04:20:00,50.3,49.5,30.09,South,187,0.0,0.0,97,0.00,,SKC,0.00,VWS V14.01,2013-06-15 08:20:00,
2013-06-15 04:25:00,50.1,49.3,30.09,South,187,0.0,0.0,97,0.00,,SKC,0.00,VWS V14.01,2013-06-15 08:25:00,
2013-06-15 04:30:00,50.2,49.7,30.09,South,187,0.0,0.0,98,0.00,,SKC,0.00,VWS V14.01,2013-06-15 08:30:00,
2013-06-15 04:35:00,50.1,49.6,30.09,South,187,0.0,0.0,98,0.00,,SKC,0.00,VWS V14.01,2013-06-15 08:35:00,
2013-06-15 04:40:00,50.0,49.5,30.10,South,188,0.0,0.0,98,0.00,,SKC,0.00,VWS V14.01,2013-06-15 08:40:00,
2013-06-15 04:45:00,49.9,49.4,30.10,South,187,0.0,0.0,98,0.00,,SKC,0.00,VWS V14.01,2013-06-15 08:45:00,
2013-06-15 04:50:00,49.9,49.4,30.11,South,188,0.0,0.0,98,0.00,,SKC,0.00,VWS V14.01,2013-06-15 08:50:00,
2013-06-15 04:55:00,49.8,49.3,30.11,South,187,0.0,0.0,98,0.00,,SKC,0.00,VWS V14.01,2013-06-15 08:55:00,
2013-06-15 05:00:00,49.7,49.2,30.11,South,188,0.0,0.0,98,0.00,,SKC,0.00,VWS V14.01,2013-06-15 09:00:00,
2013-06-15 05:05:00,49.4,48.9,30.11,South,187,0.0,0.0,98,0.00,,SKC,0.00,VWS V14.01,2013-06-15 09:05:00,
2013-06-15 05:10:00,49.2,48.4,30.11,South,187,0.0,0.0,97,0.00,,SKC,0.00,VWS V14.01,2013-06-15 09:10:00,
2013-06-15 05:15:00,49.1,48.6,30.11,South,187,0.0,0.0,98,0.00,,SKC,0.00,VWS V14.01,2013-06-15 09:15:00,
2013-06-15 05:20:00,49.1,48.6,30.11,South,187,0.0,0.0,98,0.00,,SKC,0.00,VWS V14.01,2013-06-15 09:20:00,
2013-06-15 05:25:00,49.2,48.7,30.12,South,187,0.0,0.0,98,0.00,,SKC,0.00,VWS V14.01,2013-06-15 09:25:00,
2013-06-15 05:30:00,49.1,48.6,30.12,South,187,0.0,0.0,98,0.00,,SKC,0.00,VWS V14.01,2013-06-15 09:30:00,
2013-06-15 05:35:00,49.2,48.7,30.12,South,187,0.0,0.0,98,0.00,,SKC,0.00,VWS V14.01,2013-06-15 09:35:00,
2013-06-15 05:40:00,49.1,48.6,30.13,South,187,0.0,0.0,98,0.00,,SKC,0.00,VWS V14.01,2013-06-15 09:40:00,
2013-06-15 05:45:00,49.0,48.5,30.13,South,187,0.0,0.0,98,0.00,,SKC,0.00,VWS V14.01,2013-06-15 09:45:00,
2013-06-15 05:50:00,48.9,48.4,30.12,South,187,0.0,0.0,98,0.00,,SKC,0.00,VWS V14.01,2013-06-15 09:50:00,
2013-06-15 05:55:00,49.0,48.5,30.13,South,187,0.0,0.0,98,0.00,,SKC,0.00,VWS V14.01,2013-06-15 09:55:00,
2013-06-15 06:00:00,49.0,48.5,30.13,South,187,0.0,0.0,98,0.00,,SKC,0.00,VWS V14.01,2013-06-15 10:00:00,
2013-06-15 06:05:00,48.8,48.3,30.13,South,187,0.0,0.0,98,0.00,,SKC,0.00,VWS V14.01,2013-06-15 10:05:00,
2013-06-15 06:10:00,48.7,48.2,30.13,South,187,0.0,0.0,98,0.00,,SKC,0.00,VWS V14.01,2013-06-15 10:10:00,
2013-06-15 06:15:00,48.7,48.2,30.13,South,187,0.0,0.0,98,0.00,,SKC,0.00,VWS V14.01,2013-06-15 10:15:00,
2013-06-15 06:20:00,48.7,48.2,30.13,South,187,0.0,0.0,98,0.00,,SKC,0.00,VWS V14.01,2013-06-15 10:20:00,
2013-06-15 06:25:00,48.7,48.2,30.14,South,187,0.0,0.0,98,0.00,,SKC,0.00,VWS V14.01,2013-06-15 10:25:00,
2013-06-15 06:30:00,48.5,48.0,30.14,South,187,0.0,0.0,98,0.00,,SKC,0.00,VWS V14.01,2013-06-15 10:30:00,
2013-06-15 06:35:00,48.6,48.1,30.15,South,187,0.0,0.0,98,0.00,,SKC,0.00,VWS V14.01,2013-06-15 10:35:00,
2013-06-15 06:40:00,48.6,48.1,30.15,South,187,0.0,0.0,98,0.00,,SKC,0.00,VWS V14.01,2013-06-15 10:40:00,
2013-06-15 06:45:00,49.2,48.7,30.14,South,187,0.0,0.0,98,0.00,,SKC,0.00,VWS V14.01,2013-06-15 10:45:00,
2013-06-15 06:50:00,50.1,49.6,30.15,South,187,0.0,0.0,98,0.00,,SKC,0.00,VWS V14.01,2013-06-15 10:50:00,
2013-06-15 06:55:00,51.1,50.8,30.15,South,187,0.0,0.0,99,0.00,,SKC,0.00,VWS V14.01,2013-06-15 10:55:00,
2013-06-15 07:00:00,51.4,50.9,30.15,South,187,0.0,0.0,98,0.00,,SKC,0.00,VWS V14.01,2013-06-15 11:00:00,
2013-06-15 07:05:00,51.3,50.5,30.15,South,188,0.0,0.0,97,0.00,,SKC,0.00,VWS V14.01,2013-06-15 11:05:00,
2013-06-15 07:10:00,51.5,50.7,30.15,South,187,0.0,0.0,97,0.00,,SKC,0.00,VWS V14.01,2013-06-15 11:10:00,
2013-06-15 07:15:00,52.6,52.0,30.15,South,187,0.0,0.0,98,0.00,,SKC,0.00,VWS V14.01,2013-06-15 11:15:00,
2013-06-15 07:20:00,53.1,52.5,30.15,South,187,0.0,0.0,98,0.00,,SKC,0.00,VWS V14.01,2013-06-15 11:20:00,
2013-06-15 07:25:00,52.9,52.1,30.15,South,187,0.0,0.0,97,0.00,,SKC,0.00,VWS V14.01,2013-06-15 11:25:00,
2013-06-15 07:30:00,52.8,52.0,30.15,South,188,0.0,0.0,97,0.00,,SKC,0.00,VWS V14.01,2013-06-15 11:30:00,
2013-06-15 07:35:00,52.8,52.0,30.16,South,187,0.0,0.0,97,0.00,,SKC,0.00,VWS V14.01,2013-06-15 11:35:00,
2013-06-15 07:40:00,52.8,52.0,30.16,South,187,0.0,0.0,97,0.00,,SKC,0.00,VWS V14.01,2013-06-15 11:40:00,
2013-06-15 07:45:00,53.2,52.7,30.16,South,187,0.0,0.0,98,0.00,,SKC,0.00,VWS V14.01,2013-06-15 11:45:00,
2013-06-15 07:50:00,53.3,52.8,30.16,South,187,0.0,0.0,98,0.00,,SKC,0.00,VWS V14.01,2013-06-15 11:50:00,
2013-06-15 07:55:00,53.6,53.0,30.16,South,187,0.0,0.0,98,0.00,,SKC,0.00,VWS V14.01,2013-06-15 11:55:00,
2013-06-15 08:00:00,53.9,53.3,30.16,South,187,0.0,0.0,98,0.00,,SKC,0.00,VWS V14.01,2013-06-15 12:00:00,
2013-06-15 08:05:00,54.2,53.7,30.16,South,187,0.0,0.0,98,0.00,,SKC,0.00,VWS V14.01,2013-06-15 12:05:00,
2013-06-15 08:10:00,54.8,54.0,30.16,South,187,0.0,1.0,97,0.00,,SKC,0.00,VWS V14.01,2013-06-15 12:10:00,
2013-06-15 08:15:00,55.9,55.1,30.16,South,187,0.0,1.0,97,0.00,,SKC,0.00,VWS V14.01,2013-06-15 12:15:00,
2013-06-15 08:20:00,56.9,55.8,30.16,South,188,0.0,1.0,96,0.00,,SKC,0.00,VWS V14.01,2013-06-15 12:20:00,
2013-06-15 08:25:00,57.6,55.3,30.16,South,187,0.0,1.0,92,0.00,,SKC,0.00,VWS V14.01,2013-06-15 12:25:00,
2013-06-15 08:30:00,58.0,55.4,30.17,South,187,0.0,0.0,91,0.00,,SKC,0.00,VWS V14.01,2013-06-15 12:30:00,
2013-06-15 08:35:00,58.6,56.0,30.17,South,187,0.0,1.0,91,0.00,,SKC,0.00,VWS V14.01,2013-06-15 12:35:00,
2013-06-15 08:40:00,59.4,56.2,30.17,South,187,1.0,1.0,89,0.00,,SKC,0.00,VWS V14.01,2013-06-15 12:40:00,
2013-06-15 08:45:00,59.8,56.2,30.17,South,188,0.0,2.0,88,0.00,,SKC,0.00,VWS V14.01,2013-06-15 12:45:00,
2013-06-15 08:50:00,60.4,56.5,30.17,South,187,0.0,2.0,87,0.00,,SKC,0.00,VWS V14.01,2013-06-15 12:50:00,
2013-06-15 08:55:00,61.0,56.8,30.17,South,187,1.0,2.0,86,0.00,,SKC,0.00,VWS V14.01,2013-06-15 12:55:00,
2013-06-15 09:00:00,61.1,56.6,30.17,NNE,24,0.0,1.0,85,0.00,,SKC,0.00,VWS V14.01,2013-06-15 13:00:00,
2013-06-15 09:05:00,61.5,57.0,30.17,North,8,2.0,3.0,85,0.00,,SKC,0.00,VWS V14.01,2013-06-15 13:05:00,
2013-06-15 09:10:00,61.7,56.8,30.17,North,5,1.0,3.0,84,0.00,,SKC,0.00,VWS V14.01,2013-06-15 13:10:00,
2013-06-15 09:15:00,61.9,57.0,30.17,North,4,0.0,3.0,84,0.00,,SKC,0.00,VWS V14.01,2013-06-15 13:15:00,
2013-06-15 09:20:00,62.1,56.9,30.17,North,4,0.0,3.0,83,0.00,,SKC,0.00,VWS V14.01,2013-06-15 13:20:00,
2013-06-15 09:25:00,62.3,57.1,30.17,North,5,1.0,4.0,83,0.00,,SKC,0.00,VWS V14.01,2013-06-15 13:25:00,
2013-06-15 09:30:00,62.7,57.1,30.17,North,4,2.0,2.0,82,0.00,,SKC,0.00,VWS V14.01,2013-06-15 13:30:00,
2013-06-15 09:35:00,63.2,57.6,30.17,North,5,2.0,2.0,82,0.00,,SKC,0.00,VWS V14.01,2013-06-15 13:35:00,
2013-06-15 09:40:00,63.6,57.7,30.17,North,5,0.0,4.0,81,0.00,,SKC,0.00,VWS V14.01,2013-06-15 13:40:00,
2013-06-15 09:45:00,64.2,58.3,30.17,North,5,1.0,4.0,81,0.00,,SKC,0.00,VWS V14.01,2013-06-15 13:45:00,
2013-06-15 09:50:00,64.9,58.6,30.17,North,5,2.0,4.0,80,0.00,,SKC,0.00,VWS V14.01,2013-06-15 13:50:00,
2013-06-15 09:55:00,65.2,58.2,30.17,North,5,2.0,4.0,78,0.00,,SKC,0.00,VWS V14.01,2013-06-15 13:55:00,
2013-06-15 10:00:00,65.5,58.1,30.17,North,5,1.0,1.0,77,0.00,,SKC,0.00,VWS V14.01,2013-06-15 14:00:00,
2013-06-15 10:05:00,65.9,58.1,30.17,North,5,0.0,2.0,76,0.00,,SKC,0.00,VWS V14.01,2013-06-15 14:05:00,
2013-06-15 10:10:00,66.7,58.5,30.17,North,5,1.0,3.0,75,0.00,,SKC,0.00,VWS V14.01,2013-06-15 14:10:00,
2013-06-15 10:15:00,67.4,58.8,30.16,North,4,0.0,3.0,74,0.00,,SKC,0.00,VWS V14.01,2013-06-15 14:15:00,
2013-06-15 10:20:00,68.3,60.1,30.16,North,4,0.0,3.0,75,0.00,,SKC,0.00,VWS V14.01,2013-06-15 14:20:00,
2013-06-15 10:25:00,68.4,59.0,30.16,North,5,0.0,3.0,72,0.00,,SKC,0.00,VWS V14.01,2013-06-15 14:25:00,
2013-06-15 10:30:00,68.7,59.3,30.16,North,5,1.0,2.0,72,0.00,,SKC,0.00,VWS V14.01,2013-06-15 14:30:00,
2013-06-15 10:35:00,69.0,59.2,30.16,North,5,0.0,2.0,71,0.00,,SKC,0.00,VWS V14.01,2013-06-15 14:35:00,
2013-06-15 10:40:00,69.6,59.0,30.16,North,5,1.0,2.0,69,0.00,,SKC,0.00,VWS V14.01,2013-06-15 14:40:00,
2013-06-15 10:45:00,70.2,59.6,30.16,North,4,1.0,2.0,69,0.00,,SKC,0.00,VWS V14.01,2013-06-15 14:45:00,
2013-06-15 10:50:00,70.6,59.1,30.16,North,4,0.0,3.0,67,0.00,,SKC,0.00,VWS V14.01,2013-06-15 14:50:00,
2013-06-15 10:55:00,71.1,58.8,30.15,WNW,294,1.0,3.0,65,0.00,,SKC,0.00,VWS V14.01,2013-06-15 14:55:00,
2013-06-15 11:00:00,71.5,60.0,30.15,WSW,245,0.0,1.0,67,0.00,,SKC,0.00,VWS V14.01,2013-06-15 15:00:00,
2013-06-15 11:05:00,72.1,58.8,30.15,West,274,0.0,2.0,63,0.00,,SKC,0.00,VWS V14.01,2013-06-15 15:05:00,
2013-06-15 11:10:00,72.8,58.6,30.15,WSW,244,1.0,2.0,61,0.00,,SKC,0.00,VWS V14.01,2013-06-15 15:10:00,
2013-06-15 11:15:00,73.8,58.6,30.15,South,183,1.0,2.0,59,0.00,,SKC,0.00,VWS V14.01,2013-06-15 15:15:00,
2013-06-15 11:20:00,74.5,57.3,30.15,South,174,0.0,4.0,55,0.00,,SKC,0.00,VWS V14.01,2013-06-15 15:20:00,
2013-06-15 11:25:00,74.7,59.9,30.15,SW,219,0.0,4.0,60,0.00,,SKC,0.00,VWS V14.01,2013-06-15 15:25:00,
2013-06-15 11:30:00,74.8,59.0,30.15,SE,129,0.0,1.0,58,0.00,,SKC,0.00,VWS V14.01,2013-06-15 15:30:00,
2013-06-15 11:35:00,75.1,58.3,30.15,SSE,149,1.0,3.0,56,0.00,,SKC,0.00,VWS V14.01,2013-06-15 15:35:00,
2013-06-15 11:40:00,75.6,59.8,30.15,SW,219,1.0,3.0,58,0.00,,SKC,0.00,VWS V14.01,2013-06-15 15:40:00,
2013-06-15 11:45:00,75.8,59.5,30.14,North,360,1.0,3.0,57,0.00,,SKC,0.00,VWS V14.01,2013-06-15 15:45:00,
2013-06-15 11:50:00,76.2,58.4,30.14,SSE,158,1.0,3.0,54,0.00,,SKC,0.00,VWS V14.01,2013-06-15 15:50:00,
2013-06-15 11:55:00,76.6,60.2,30.14,SW,221,1.0,4.0,57,0.00,,SKC,0.00,VWS V14.01,2013-06-15 15:55:00,
2013-06-15 12:00:00,76.3,60.5,30.14,NNW,346,1.0,1.0,58,0.00,,SKC,0.00,VWS V14.01,2013-06-15 16:00:00,
2013-06-15 12:05:00,76.7,57.8,30.14,SSE,162,1.0,2.0,52,0.00,,SKC,0.00,VWS V14.01,2013-06-15 16:05:00,
2013-06-15 12:10:00,77.1,57.0,30.14,SSW,212,0.0,2.0,50,0.00,,SKC,0.00,VWS V14.01,2013-06-15 16:10:00,
2013-06-15 12:15:00,77.6,57.5,30.14,South,170,1.0,3.0,50,0.00,,SKC,0.00,VWS V14.01,2013-06-15 16:15:00,
2013-06-15 12:20:00,77.2,57.1,30.14,NNW,341,2.0,5.0,50,0.00,,SKC,0.00,VWS V14.01,2013-06-15 16:20:00,
2013-06-15 12:25:00,76.7,57.8,30.13,NNW,334,2.0,5.0,52,0.00,,SKC,0.00,VWS V14.01,2013-06-15 16:25:00,
2013-06-15 12:30:00,76.1,56.1,30.13,WNW,295,2.0,2.0,50,0.00,,SKC,0.00,VWS V14.01,2013-06-15 16:30:00,
2013-06-15 12:35:00,75.9,56.5,30.13,ENE,62,1.0,4.0,51,0.00,,SKC,0.00,VWS V14.01,2013-06-15 16:35:00,
2013-06-15 12:40:00,76.4,57.5,30.13,SSW,200,3.0,4.0,52,0.00,,SKC,0.00,VWS V14.01,2013-06-15 16:40:00,
2013-06-15 12:45:00,77.3,58.8,30.13,SW,226,1.0,4.0,53,0.00,,SKC,0.00,VWS V14.01,2013-06-15 16:45:00,
2013-06-15 12:50:00,77.0,56.4,30.13,NNW,332,0.0,4.0,49,0.00,,SKC,0.00,VWS V14.01,2013-06-15 16:50:00,
2013-06-15 12:55:00,76.8,56.8,30.13,North,6,1.0,6.0,50,0.00,,SKC,0.00,VWS V14.01,2013-06-15 16:55:00,
2013-06-15 13:00:00,76.9,58.5,30.13,NNE,30,2.0,2.0,53,0.00,,SKC,0.00,VWS V14.01,2013-06-15 17:00:00,
2013-06-15 13:05:00,76.9,56.9,30.13,WSW,256,3.0,6.0,50,0.00,,SKC,0.00,VWS V14.01,2013-06-15 17:05:00,
2013-06-15 13:10:00,76.8,57.3,30.13,NW,309,2.0,7.0,51,0.00,,SKC,0.00,VWS V14.01,2013-06-15 17:10:00,
2013-06-15 13:15:00,76.8,58.4,30.13,ENE,57,4.0,7.0,53,0.00,,SKC,0.00,VWS V14.01,2013-06-15 17:15:00,
2013-06-15 13:20:00,77.0,57.0,30.13,NE,49,2.0,9.0,50,0.00,,SKC,0.00,VWS V14.01,2013-06-15 17:20:00,
2013-06-15 13:25:00,77.1,59.2,30.13,NE,43,1.0,9.0,54,0.00,,SKC,0.00,VWS V14.01,2013-06-15 17:25:00,
2013-06-15 13:30:00,77.9,59.9,30.13,NNE,20,1.0,1.0,54,0.00,,SKC,0.00,VWS V14.01,2013-06-15 17:30:00,
2013-06-15 13:35:00,78.6,57.9,30.12,NNW,328,3.0,6.0,49,0.00,,SKC,0.00,VWS V14.01,2013-06-15 17:35:00,
2013-06-15 13:40:00,78.6,59.5,30.12,NE,42,3.0,6.0,52,0.00,,SKC,0.00,VWS V14.01,2013-06-15 17:40:00,
2013-06-15 13:45:00,78.7,59.1,30.12,North,6,6.0,7.0,51,0.00,,SKC,0.00,VWS V14.01,2013-06-15 17:45:00,
2013-06-15 13:50:00,78.2,58.1,30.12,NNW,346,4.0,10.0,50,0.00,,SKC,0.00,VWS V14.01,2013-06-15 17:50:00,
2013-06-15 13:55:00,78.3,58.7,30.12,WNW,298,0.0,10.0,51,0.00,,SKC,0.00,VWS V14.01,2013-06-15 17:55:00,
2013-06-15 14:00:00,78.6,57.9,30.12,WSW,246,2.0,2.0,49,0.00,,SKC,0.00,VWS V14.01,2013-06-15 18:00:00,
2013-06-15 14:05:00,78.0,57.9,30.12,NNW,347,6.0,8.0,50,0.00,,SKC,0.00,VWS V14.01,2013-06-15 18:05:00,
2013-06-15 14:10:00,78.1,59.6,30.11,WNW,284,1.0,8.0,53,0.00,,SKC,0.00,VWS V14.01,2013-06-15 18:10:00,
2013-06-15 14:15:00,78.8,60.2,30.11,NNW,328,1.0,8.0,53,0.00,,SKC,0.00,VWS V14.01,2013-06-15 18:15:00,
2013-06-15 14:20:00,78.9,58.1,30.11,SSW,204,3.0,8.0,49,0.00,,SKC,0.00,VWS V14.01,2013-06-15 18:20:00,
2013-06-15 14:25:00,79.1,59.4,30.11,WNW,293,1.0,8.0,51,0.00,,SKC,0.00,VWS V14.01,2013-06-15 18:25:00,
2013-06-15 14:30:00,79.6,59.9,30.11,SSW,203,0.0,0.0,51,0.00,,SKC,0.00,VWS V14.01,2013-06-15 18:30:00,
2013-06-15 14:35:00,79.5,58.1,30.11,NW,324,3.0,8.0,48,0.00,,SKC,0.00,VWS V14.01,2013-06-15 18:35:00,
2013-06-15 14:40:00,79.0,58.8,30.10,NNW,341,4.0,8.0,50,0.00,,SKC,0.00,VWS V14.01,2013-06-15 18:40:00,
2013-06-15 14:45:00,78.3,58.7,30.10,WNW,300,1.0,8.0,51,0.00,,SKC,0.00,VWS V14.01,2013-06-15 18:45:00,
2013-06-15 14:50:00,77.9,57.2,30.11,North,8,3.0,8.0,49,0.00,,SKC,0.00,VWS V14.01,2013-06-15 18:50:00,
2013-06-15 14:55:00,78.5,61.0,30.10,NNW,334,2.0,8.0,55,0.00,,SKC,0.00,VWS V14.01,2013-06-15 18:55:00,
2013-06-15 15:00:00,78.9,58.1,30.11,ENE,60,6.0,6.0,49,0.00,,SKC,0.00,VWS V14.01,2013-06-15 19:00:00,
2013-06-15 15:05:00,78.5,58.3,30.11,NNW,348,3.0,10.0,50,0.00,,SKC,0.00,VWS V14.01,2013-06-15 19:05:00,
2013-06-15 15:10:00,77.8,57.7,30.10,ENE,65,3.0,10.0,50,0.00,,SKC,0.00,VWS V14.01,2013-06-15 19:10:00,
2013-06-15 15:15:00,78.0,60.0,30.10,NNW,340,2.0,10.0,54,0.00,,SKC,0.00,VWS V14.01,2013-06-15 19:15:00,
2013-06-15 15:20:00,78.5,58.9,30.10,NNW,332,3.0,10.0,51,0.00,,SKC,0.00,VWS V14.01,2013-06-15 19:20:00,
2013-06-15 15:25:00,78.9,58.1,30.10,ENE,60,3.0,10.0,49,0.00,,SKC,0.00,VWS V14.01,2013-06-15 19:25:00,
2013-06-15 15:30:00,79.1,60.0,30.10,NE,39,3.0,3.0,52,0.00,,SKC,0.00,VWS V14.01,2013-06-15 19:30:00,
2013-06-15 15:35:00,79.6,57.6,30.10,West,269,3.0,8.0,47,0.00,,SKC,0.00,VWS V14.01,2013-06-15 19:35:00,
2013-06-15 15:40:00,79.7,60.0,30.10,West,281,2.0,8.0,51,0.00,,SKC,0.00,VWS V14.01,2013-06-15 19:40:00,
2013-06-15 15:45:00,79.5,58.1,30.10,WNW,285,1.0,8.0,48,0.00,,SKC,0.00,VWS V14.01,2013-06-15 19:45:00,
2013-06-15 15:50:00,79.7,57.7,30.09,SW,236,4.0,8.0,47,0.00,,SKC,0.00,VWS V14.01,2013-06-15 19:50:00,
2013-06-15 15:55:00,79.6,58.8,30.09,NNE,23,4.0,8.0,49,0.00,,SKC,0.00,VWS V14.01,2013-06-15 19:55:00,
2013-06-15 16:00:00,79.8,59.5,30.09,NNW,335,4.0,4.0,50,0.00,,SKC,0.00,VWS V14.01,2013-06-15 20:00:00,
2013-06-15 16:05:00,79.7,56.5,30.09,NW,315,2.0,6.0,45,0.00,,SKC,0.00,VWS V14.01,2013-06-15 20:05:00,
2013-06-15 16:10:00,79.5,57.5,30.09,NNW,329,2.0,6.0,47,0.00,,SKC,0.00,VWS V14.01,2013-06-15 20:10:00,
2013-06-15 16:15:00,80.0,58.0,30.09,West,271,0.0,6.0,47,0.00,,SKC,0.00,VWS V14.01,2013-06-15 20:15:00,
2013-06-15 16:20:00,80.4,58.3,30.08,NNW,340,4.0,9.0,47,0.00,,SKC,0.00,VWS V14.01,2013-06-15 20:20:00,
2013-06-15 16:25:00,80.1,59.2,30.09,NNW,332,3.0,9.0,49,0.00,,SKC,0.00,VWS V14.01,2013-06-15 20:25:00,
2013-06-15 16:30:00,79.7,58.3,30.08,WNW,302,0.0,0.0,48,0.00,,SKC,0.00,VWS V14.01,2013-06-15 20:30:00,
2013-06-15 16:35:00,79.6,58.2,30.08,North,350,0.0,2.0,48,0.00,,SKC,0.00,VWS V14.01,2013-06-15 20:35:00,
2013-06-15 16:40:00,79.7,58.3,30.08,NNW,342,2.0,3.0,48,0.00,,SKC,0.00,VWS V14.01,2013-06-15 20:40:00,
2013-06-15 16:45:00,80.1,58.7,30.08,NW,305,1.0,3.0,48,0.00,,SKC,0.00,VWS V14.01,2013-06-15 20:45:00,
2013-06-15 16:50:00,81.0,60.6,30.08,NNE,16,2.0,3.0,50,0.00,,SKC,0.00,VWS V14.01,2013-06-15 20:50:00,
2013-06-15 16:55:00,81.8,61.4,30.08,NE,46,6.0,6.0,50,0.00,,SKC,0.00,VWS V14.01,2013-06-15 20:55:00,
2013-06-15 17:00:00,80.9,62.2,30.08,NE,46,0.0,7.0,53,0.00,,SKC,0.00,VWS V14.01,2013-06-15 21:00:00,
2013-06-15 17:05:00,81.0,60.1,30.08,NW,307,2.0,5.0,49,0.00,,SKC,0.00,VWS V14.01,2013-06-15 21:05:00,
2013-06-15 17:10:00,81.0,61.2,30.08,NNE,16,2.0,7.0,51,0.00,,SKC,0.00,VWS V14.01,2013-06-15 21:10:00,
2013-06-15 17:15:00,81.0,58.9,30.08,NNW,333,4.0,7.0,47,0.00,,SKC,0.00,VWS V14.01,2013-06-15 21:15:00,
2013-06-15 17:20:00,80.8,61.0,30.07,NNE,20,4.0,7.0,51,0.00,,SKC,0.00,VWS V14.01,2013-06-15 21:20:00,
2013-06-15 17:25:00,80.7,58.6,30.07,NE,44,3.0,7.0,47,0.00,,SKC,0.00,VWS V14.01,2013-06-15 21:25:00,
2013-06-15 17:30:00,80.3,59.4,30.07,West,270,1.0,7.0,49,0.00,,SKC,0.00,VWS V14.01,2013-06-15 21:30:00,
2013-06-15 17:35:00,80.5,59.6,30.07,NNE,15,3.0,6.0,49,0.00,,SKC,0.00,VWS V14.01,2013-06-15 21:35:00,
2013-06-15 17:40:00,80.1,59.2,30.07,NE,53,3.0,6.0,49,0.00,,SKC,0.00,VWS V14.01,2013-06-15 21:40:00,
2013-06-15 17:45:00,80.4,60.6,30.07,NE,56,0.0,6.0,51,0.00,,SKC,0.00,VWS V14.01,2013-06-15 21:45:00,
2013-06-15 17:50:00,81.0,59.5,30.06,WSW,255,1.0,6.0,48,0.00,,SKC,0.00,VWS V14.01,2013-06-15 21:50:00,
2013-06-15 17:55:00,81.4,59.8,30.06,ESE,110,1.0,6.0,48,0.00,,SKC,0.00,VWS V14.01,2013-06-15 21:55:00,
2013-06-15 18:00:00,82.2,59.4,30.06,SSE,166,0.0,6.0,46,0.00,,SKC,0.00,VWS V14.01,2013-06-15 22:00:00,
2013-06-15 18:05:00,83.0,61.3,30.05,SSE,155,1.0,3.0,48,0.00,,SKC,0.00,VWS V14.01,2013-06-15 22:05:00,
2013-06-15 18:10:00,83.3,60.4,30.06,SSE,166,0.0,3.0,46,0.00,,SKC,0.00,VWS V14.01,2013-06-15 22:10:00,
2013-06-15 18:14:00,84.0,60.4,30.06,WNW,302,0.0,3.0,45,0.00,,SKC,0.00,VWS V14.01,2013-06-15 22:14:00,
2013-06-15 18:19:00,84.4,62.0,30.06,NNW,336,3.0,4.0,47,0.00,,SKC,0.00,VWS V14.01,2013-06-15 22:19:00,
2013-06-15 18:24:00,82.8,61.1,30.05,North,5,4.0,4.0,48,0.00,,SKC,0.00,VWS V14.01,2013-06-15 22:24:00,
2013-06-15 18:29:00,81.8,60.2,30.05,ENE,61,2.0,5.0,48,0.00,,SKC,0.00,VWS V14.01,2013-06-15 22:29:00,
2013-06-15 18:30:00,81.8,60.2,30.05,NE,56,1.0,5.0,48,0.00,,SKC,0.00,VWS V14.01,2013-06-15 22:30:00,
2013-06-15 18:34:00,81.5,60.5,30.06,NNE,21,3.0,3.0,49,0.00,,SKC,0.00,VWS V14.01,2013-06-15 22:34:00,
2013-06-15 18:39:00,80.9,60.0,30.05,NNE,29,3.0,4.0,49,0.00,,SKC,0.00,VWS V14.01,2013-06-15 22:39:00,
2013-06-15 18:44:00,80.6,61.9,30.06,North,1,2.0,4.0,53,0.00,,SKC,0.00,VWS V14.01,2013-06-15 22:44:00,
2013-06-15 18:49:00,80.4,61.2,30.05,North,352,3.0,6.0,52,0.00,,SKC,0.00,VWS V14.01,2013-06-15 22:49:00,
2013-06-15 18:54:00,80.1,59.8,30.06,NE,48,3.0,6.0,50,0.00,,SKC,0.00,VWS V14.01,2013-06-15 22:54:00,
2013-06-15 18:59:00,80.1,61.4,30.06,North,359,1.0,6.0,53,0.00,,SKC,0.00,VWS V14.01,2013-06-15 22:59:00,
2013-06-15 19:00:00,80.1,61.4,30.06,North,353,3.0,6.0,53,0.00,,SKC,0.00,VWS V14.01,2013-06-15 23:00:00,
2013-06-15 19:04:00,80.3,61.1,30.06,West,270,2.0,3.0,52,0.00,,SKC,0.00,VWS V14.01,2013-06-15 23:04:00,
2013-06-15 19:09:00,80.3,60.5,30.06,NNW,340,1.0,4.0,51,0.00,,SKC,0.00,VWS V14.01,2013-06-15 23:09:00,
2013-06-15 19:14:00,80.1,60.9,30.06,NNW,330,2.0,4.0,52,0.00,,SKC,0.00,VWS V14.01,2013-06-15 23:14:00,
2013-06-15 19:19:00,79.2,60.6,30.06,NW,326,2.0,4.0,53,0.00,,SKC,0.00,VWS V14.01,2013-06-15 23:19:00,
2013-06-15 19:24:00,78.7,60.7,30.06,NW,324,1.0,4.0,54,0.00,,SKC,0.00,VWS V14.01,2013-06-15 23:24:00,
2013-06-15 19:29:00,78.8,60.8,30.06,NNW,342,3.0,4.0,54,0.00,,SKC,0.00,VWS V14.01,2013-06-15 23:29:00,
2013-06-15 19:30:00,78.8,60.8,30.06,NNW,339,3.0,4.0,54,0.00,,SKC,0.00,VWS V14.01,2013-06-15 23:30:00,
2013-06-15 19:34:00,78.6,61.1,30.06,NNW,343,1.0,4.0,55,0.00,,SKC,0.00,VWS V14.01,2013-06-15 23:34:00,
2013-06-15 19:39:00,78.7,61.7,30.06,WNW,298,1.0,4.0,56,0.00,,SKC,0.00,VWS V14.01,2013-06-15 23:39:00,
2013-06-15 19:44:00,79.0,61.5,30.06,North,354,1.0,4.0,55,0.00,,SKC,0.00,VWS V14.01,2013-06-15 23:44:00,
2013-06-15 19:49:00,79.2,61.7,30.06,NNE,27,0.0,4.0,55,0.00,,SKC,0.00,VWS V14.01,2013-06-15 23:49:00,
2013-06-15 19:54:00,79.4,61.3,30.06,NNW,346,0.0,4.0,54,0.00,,SKC,0.00,VWS V14.01,2013-06-15 23:54:00,
2013-06-15 19:59:00,79.7,61.6,30.05,NNW,347,0.0,4.0,54,0.00,,SKC,0.00,VWS V14.01,2013-06-15 23:59:00,
2013-06-15 20:00:00,79.7,61.1,30.05,NNW,345,0.0,4.0,53,0.00,,SKC,0.00,VWS V14.01,2013-06-16 00:00:00,
2013-06-15 20:04:00,79.1,61.0,30.06,NNW,346,0.0,1.0,54,0.00,,SKC,0.00,VWS V14.01,2013-06-16 00:04:00,
2013-06-15 20:09:00,78.3,61.8,30.06,NNW,346,0.0,1.0,57,0.00,,SKC,0.00,VWS V14.01,2013-06-16 00:09:00,
2013-06-15 20:14:00,77.7,62.2,30.06,NNW,345,0.0,1.0,59,0.00,,SKC,0.00,VWS V14.01,2013-06-16 00:14:00,
2013-06-15 20:19:00,77.0,63.5,30.06,NNW,346,0.0,1.0,63,0.00,,SKC,0.00,VWS V14.01,2013-06-16 00:19:00,
2013-06-15 20:24:00,76.5,63.0,30.06,NNW,346,0.0,1.0,63,0.00,,SKC,0.00,VWS V14.01,2013-06-16 00:24:00,
2013-06-15 20:29:00,76.1,62.6,30.06,NNW,346,0.0,1.0,63,0.00,,SKC,0.00,VWS V14.01,2013-06-16 00:29:00,
2013-06-15 20:30:00,76.1,62.6,30.06,NNW,346,0.0,1.0,63,0.00,,SKC,0.00,VWS V14.01,2013-06-16 00:30:00,
2013-06-15 20:34:00,75.7,61.8,30.06,NNW,346,0.0,0.0,62,0.00,,SKC,0.00,VWS V14.01,2013-06-16 00:34:00,
2013-06-15 20:39:00,75.4,61.9,30.06,NNW,346,0.0,0.0,63,0.00,,SKC,0.00,VWS V14.01,2013-06-16 00:39:00,
2013-06-15 20:44:00,74.6,62.9,30.06,SSE,165,0.0,2.0,67,0.00,,SKC,0.00,VWS V14.01,2013-06-16 00:44:00,
2013-06-15 20:49:00,74.1,62.5,30.05,South,173,0.0,2.0,67,0.00,,SKC,0.00,VWS V14.01,2013-06-16 00:49:00,
2013-06-15 20:54:00,73.8,62.2,30.05,South,173,0.0,2.0,67,0.00,,SKC,0.00,VWS V14.01,2013-06-16 00:54:00,
2013-06-15 20:59:00,73.5,61.9,30.05,South,173,0.0,2.0,67,0.00,,SKC,0.00,VWS V14.01,2013-06-16 00:59:00,
2013-06-15 21:00:00,73.4,62.2,30.05,South,173,0.0,2.0,68,0.00,,SKC,0.00,VWS V14.01,2013-06-16 01:00:00,
2013-06-15 21:04:00,73.1,61.9,30.06,ENE,65,0.0,2.0,68,0.00,,SKC,0.00,VWS V14.01,2013-06-16 01:04:00,
2013-06-15 21:09:00,72.8,61.6,30.06,ENE,65,1.0,2.0,68,0.00,,SKC,0.00,VWS V14.01,2013-06-16 01:09:00,
2013-06-15 21:14:00,72.7,61.5,30.06,ENE,70,0.0,2.0,68,0.00,,SKC,0.00,VWS V14.01,2013-06-16 01:14:00,
2013-06-15 21:19:00,72.6,61.4,30.06,NNE,28,0.0,2.0,68,0.00,,SKC,0.00,VWS V14.01,2013-06-16 01:19:00,
2013-06-15 21:24:00,72.6,61.9,30.06,NNE,28,0.0,2.0,69,0.00,,SKC,0.00,VWS V14.01,2013-06-16 01:24:00,
2013-06-15 21:29:00,72.5,61.8,30.06,South,173,1.0,2.0,69,0.00,,SKC,0.00,VWS V14.01,2013-06-16 01:29:00,
2013-06-15 21:30:00,72.5,61.8,30.06,SW,226,1.0,2.0,69,0.00,,SKC,0.00,VWS V14.01,2013-06-16 01:30:00,
2013-06-15 21:34:00,72.2,61.5,30.07,SW,226,0.0,1.0,69,0.00,,SKC,0.00,VWS V14.01,2013-06-16 01:34:00,
2013-06-15 21:39:00,71.9,61.6,30.07,SW,226,0.0,1.0,70,0.00,,SKC,0.00,VWS V14.01,2013-06-16 01:39:00,
2013-06-15 21:44:00,71.6,61.3,30.07,SE,133,1.0,2.0,70,0.00,,SKC,0.00,VWS V14.01,2013-06-16 01:44:00,
2013-06-15 21:49:00,71.3,61.0,30.07,SSW,201,0.0,2.0,70,0.00,,SKC,0.00,VWS V14.01,2013-06-16 01:49:00,
2013-06-15 21:54:00,71.1,61.2,30.07,SSW,201,0.0,2.0,71,0.00,,SKC,0.00,VWS V14.01,2013-06-16 01:54:00,
2013-06-15 21:59:00,70.9,61.0,30.07,ESE,123,1.0,2.0,71,0.00,,SKC,0.00,VWS V14.01,2013-06-16 01:59:00,
2013-06-15 22:00:00,70.9,61.0,30.07,ENE,65,0.0,2.0,71,0.00,,SKC,0.00,VWS V14.01,2013-06-16 02:00:00,
2013-06-15 22:04:00,70.7,60.8,30.08,ENE,65,0.0,1.0,71,0.00,,SKC,0.00,VWS V14.01,2013-06-16 02:04:00,
2013-06-15 22:09:00,70.4,61.0,30.08,ENE,65,0.0,1.0,72,0.00,,SKC,0.00,VWS V14.01,2013-06-16 02:09:00,
2013-06-15 22:14:00,70.3,60.9,30.08,SW,225,0.0,1.0,72,0.00,,SKC,0.00,VWS V14.01,2013-06-16 02:14:00,
2013-06-15 22:19:00,70.1,61.0,30.08,SW,225,0.0,1.0,73,0.00,,SKC,0.00,VWS V14.01,2013-06-16 02:19:00,
2013-06-15 22:24:00,69.9,60.9,30.08,SSE,155,0.0,2.0,73,0.00,,SKC,0.00,VWS V14.01,2013-06-16 02:24:00,
2013-06-15 22:29:00,69.9,60.9,30.09,SSE,154,0.0,2.0,73,0.00,,SKC,0.00,VWS V14.01,2013-06-16 02:29:00,
2013-06-15 22:30:00,69.9,60.9,30.09,SSE,153,0.0,2.0,73,0.00,,SKC,0.00,VWS V14.01,2013-06-16 02:30:00,
2013-06-15 22:34:00,69.8,60.8,30.09,SSE,153,0.0,0.0,73,0.00,,SKC,0.00,VWS V14.01,2013-06-16 02:34:00,
2013-06-15 22:39:00,69.6,61.0,30.09,SSW,194,0.0,1.0,74,0.00,,SKC,0.00,VWS V14.01,2013-06-16 02:39:00,
2013-06-15 22:44:00,69.4,60.8,30.09,SSW,194,0.0,1.0,74,0.00,,SKC,0.00,VWS V14.01,2013-06-16 02:44:00,
2013-06-15 22:49:00,69.0,60.8,30.09,SSW,194,0.0,1.0,75,0.00,,SKC,0.00,VWS V14.01,2013-06-16 02:49:00,
2013-06-15 22:54:00,68.7,60.5,30.09,SSW,194,0.0,1.0,75,0.00,,SKC,0.00,VWS V14.01,2013-06-16 02:54:00,
2013-06-15 22:59:00,68.4,60.5,30.09,SSW,193,0.0,1.0,76,0.00,,SKC,0.00,VWS V14.01,2013-06-16 02:59:00,
2013-06-15 23:00:00,68.4,60.5,30.09,SSW,194,0.0,1.0,76,0.00,,SKC,0.00,VWS V14.01,2013-06-16 03:00:00,
2013-06-15 23:04:00,68.1,60.3,30.10,SSW,194,0.0,0.0,76,0.00,,SKC,0.00,VWS V14.01,2013-06-16 03:04:00,
2013-06-15 23:09:00,68.0,60.5,30.10,SSW,194,0.0,0.0,77,0.00,,SKC,0.00,VWS V14.01,2013-06-16 03:09:00,
2013-06-15 23:14:00,67.9,60.4,30.10,SSW,194,0.0,0.0,77,0.00,,SKC,0.00,VWS V14.01,2013-06-16 03:14:00,
2013-06-15 23:19:00,67.9,60.4,30.10,SSW,194,0.0,0.0,77,0.00,,SKC,0.00,VWS V14.01,2013-06-16 03:19:00,
2013-06-15 23:24:00,67.6,61.2,30.10,SSW,194,0.0,1.0,80,0.00,,SKC,0.00,VWS V14.01,2013-06-16 03:24:00,
2013-06-15 23:29:00,67.1,61.1,30.10,SSW,194,0.0,1.0,81,0.00,,SKC,0.00,VWS V14.01,2013-06-16 03:29:00,
2013-06-15 23:30:00,67.0,61.0,30.10,SSW,194,0.0,1.0,81,0.00,,SKC,0.00,VWS V14.01,2013-06-16 03:30:00,
2013-06-15 23:34:00,66.7,60.7,30.09,SSW,194,0.0,0.0,81,0.00,,SKC,0.00,VWS V14.01,2013-06-16 03:34:00,
2013-06-15 23:39:00,66.4,60.4,30.10,SSW,194,0.0,0.0,81,0.00,,SKC,0.00,VWS V14.01,2013-06-16 03:39:00,
2013-06-15 23:44:00,66.1,60.5,30.10,SSW,194,0.0,0.0,82,0.00,,SKC,0.00,VWS V14.01,2013-06-16 03:44:00,
2013-06-15 23:49:00,65.8,60.8,30.10,SSW,194,0.0,0.0,84,0.00,,SKC,0.00,VWS V14.01,2013-06-16 03:49:00,
2013-06-15 23:54:00,65.6,61.0,30.10,SSW,194,0.0,0.0,85,0.00,,SKC,0.00,VWS V14.01,2013-06-16 03:54:00,
2013-06-15 23:59:00,65.6,61.0,30.10,SSW,194,0.0,0.0,85,0.00,,SKC,0.00,VWS V14.01,2013-06-16 03:59:00,